{"data":{"norad_id":40310,"epoch":"2026-09-20T04:24:51.652224Z","epoch_age_seconds":41387,"freshness":"FRESH","line1":"1 40310U 14072A   26263.18393116  .00000227  00000+0  40598-4 0  9993","line2":"2 40310  98.1627  41.3890 0013692 325.1279  34.9031 14.76185698637739","mean_motion":14.76185698,"eccentricity":0.0013692,"inclination_deg":98.1627,"raan_deg":41.389,"arg_perigee_deg":325.1279,"mean_anomaly_deg":34.9031,"bstar":4.0598e-5,"rev_number":63773,"period_min":97.548702846192,"perigee_km":631.77881359074,"apogee_km":651.00108619033,"semimajor_km":7019.5269498905,"source":"CELESTRAK","updated_at":"2026-09-20T09:00:33.962777Z"}}